Back to catalog

STARLINK-31951

AliveCommunicationsVLEO
NORAD 59890·PAYLOAD·🇺🇸 United States

Launched May 28, 2024 from Cape Canaveral Space Force Station

Loading…

Next Passes (next 24 hours)

TLE

FreshSource: CelesTrak SupGP

Epoch: Sep 14, 2026, 21:32 UTC

1 59890C 24100F   26257.89770833 -.00056759  00000+0 -20561-2 0  2571
2 59890  42.9992 136.6468 0001485 265.4413 184.9357 15.27601687    16

Track STARLINK-31951 in real time with AllMySat

Download on the App Store